Tracking 25689 objects as of 7-Jul-2022
HD Live streaming from Space Station
objects crossing your sky now

FENGYUN 1C DEB

Track FENGYUN 1C DEB now!
10-day predictions


NORAD ID: 37474
Int'l Code: 1999-025EJU
Perigee: 605.6 km
Apogee: 905.0 km
Inclination: 99.1 °
Period: 99.8 minutes
Semi major axis: 7126 km
RCS: 0.0095 m2 (small)
Launch date: May 10, 1999
Source: People's Republic of China (PRC)
Launch site: Taiyaun Space Center, China (TSC)

Note: This is SATELLITE DEBRIS
aabbcc
Your satellite tracking list
Your tracking list is empty




NASA's NSSDC Master Catalog

Two Line Element Set (TLE):
1 37474U 99025EJU 22187.90226518  .00001090  00000-0  26307-3 0  9994
2 37474  99.1461 255.9815 0210047 321.9524  36.6984 14.43135640441143
Source of the keplerian elements: AFSPC